Location: Squirrel Cove
(50.1074°N, 124.9139°W)
Time: 04:18:20
(UTC-07:00)

ESTCUBE 1 - Visible Passes

Search period start: 22 May 2022 00:00
Search period end: 01 June 2022 00:00
Orbit: 645 x 659 km, 97.9° (Epoch: 22 May)

Date Brightness Start Highest point End Pass type
(mag) Time Alt. Az. Time Alt. Az. Time Alt. Az.
22 May ? 22:27:15 12° ESE 22:30:45 31° ENE 22:34:43 10° N visible
23 May ? 00:05:05 21° SSW 00:07:27 35° W 00:11:35 10° NNW visible
23 May ? 22:54:35 19° SE 22:57:41 53° ENE 23:02:05 10° N visible
24 May ? 00:32:24 14° SW 00:34:46 20° W 00:38:07 10° NW visible
24 May ? 23:21:54 23° SSE 23:24:43 87° WSW 23:29:15 10° NNW visible
25 May ? 01:00:40 10° WSW 01:02:10 11° W 01:03:40 10° WNW visible
25 May ? 22:11:47 10° ESE 22:15:21 24° ENE 22:18:56 10° N visible
25 May ? 23:49:14 22° SSW 23:51:51 48° W 23:56:13 10° NNW visible
26 May ? 22:38:44 14° SE 22:42:13 39° ENE 22:46:24 10° N visible
27 May ? 00:16:33 17° SW 00:19:05 27° W 00:22:56 10° NW visible
27 May ? 23:06:03 19° SSE 23:09:11 69° ENE 23:13:39 10° N visible
28 May ? 00:43:52 11° SW 00:46:25 16° W 00:49:11 10° NW visible
28 May ? 21:56:56 10° ESE 21:59:57 18° ENE 22:02:59 10° NNE visible
28 May ? 23:33:22 22° S 23:36:15 68° WSW 23:40:44 10° NNW visible
29 May ? 22:22:53 10° SE 22:26:45 29° ENE 22:30:37 10° N visible
30 May ? 00:00:41 19° SSW 00:03:24 37° W 00:07:35 10° NNW visible
30 May ? 22:50:10 15° SE 22:53:39 49° ENE 22:57:59 10° N visible
31 May ? 00:28:00 14° SW 00:30:40 22° W 00:34:09 10° NW visible
31 May ? 23:17:29 19° SSE 23:20:38 87° E 23:25:09 10° NNW visible
